Location: Brachbach
(49.1847°N, 9.7240°E)
Time: 03:36:50
(UTC+00:00)

RESURS DK-1 - Pass Details

Date: 23 May 2024
Orbit: 541 x 547 km, 69.9° (Epoch: 19 June)

Event Time Altitude Azimuth Distance (km) Brightness Sun altitude
Rises 02:04:16 0° 328° (NNW) 2,721 6.1 -11.0°
Reaches altitude 10° 02:06:28 10° 327° (NNW) 1,825 5.2 -10.8°
Maximum altitude 02:10:32 74° 243° (WSW) 574 2.2 -10.3°
Drops below altitude 10° 02:14:34 10° 158° (SSE) 1,814 4.7 -9.9°
Sets 02:16:45 0° 157° (SSE) 2,704 5.6 -9.7°
